TimeCEST,TemperatureF,Dew PointF,Humidity,Sea Level PressureIn,VisibilityMPH,Wind Direction,Wind SpeedMPH,Gust SpeedMPH,PrecipitationIn,Events,Conditions,WindDirDegrees,DateUTC
12:20 AM,80.6,73.4,79,30.01,-9999.0,SSW,3.5,-,N/A,,Clear,200,2013-08-05 22:20:00
12:50 AM,80.6,73.4,79,30.01,-9999.0,SSW,4.6,-,N/A,,Clear,200,2013-08-05 22:50:00
1:20 AM,78.8,73.4,83,30.01,-9999.0,SSW,3.5,-,N/A,,Clear,210,2013-08-05 23:20:00
1:50 AM,78.8,73.4,83,30.01,-9999.0,SSW,3.5,-,N/A,,Clear,210,2013-08-05 23:50:00
2:20 AM,78.8,71.6,78,30.01,-9999.0,South,2.3,-,N/A,,Clear,170,2013-08-06 00:20:00
2:50 AM,78.8,73.4,83,29.98,-9999.0,South,2.3,-,N/A,,Clear,180,2013-08-06 00:50:00
3:20 AM,78.8,73.4,83,29.98,-9999.0,South,2.3,-,N/A,,Clear,180,2013-08-06 01:20:00
3:50 AM,77.0,73.4,89,29.98,-9999.0,Calm,Calm,-,N/A,,Clear,0,2013-08-06 01:50:00
4:20 AM,75.2,68.0,78,29.98,-9999.0,ENE,1.2,-,N/A,,Clear,70,2013-08-06 02:20:00
4:50 AM,77.0,69.8,78,29.98,-9999.0,Calm,Calm,-,N/A,,Clear,0,2013-08-06 02:50:00
5:20 AM,77.0,68.0,74,29.98,-9999.0,North,2.3,-,N/A,,Clear,10,2013-08-06 03:20:00
5:50 AM,77.0,68.0,74,29.98,-9999.0,NNE,4.6,-,N/A,,Clear,30,2013-08-06 03:50:00
6:20 AM,77.0,68.0,74,29.98,-9999.0,North,3.5,-,N/A,,Clear,360,2013-08-06 04:20:00
6:50 AM,77.0,69.8,78,30.01,-9999.0,North,2.3,-,N/A,,Clear,10,2013-08-06 04:50:00
7:20 AM,78.8,69.8,74,30.01,-9999.0,Variable,2.3,-,N/A,,Clear,0,2013-08-06 05:20:00
7:50 AM,80.6,69.8,70,30.01,-9999.0,Variable,2.3,-,N/A,,Clear,0,2013-08-06 05:50:00
8:20 AM,80.6,69.8,70,30.01,-9999.0,NNE,3.5,-,N/A,,Clear,20,2013-08-06 06:20:00
8:50 AM,82.4,69.8,66,30.01,-9999.0,Variable,2.3,-,N/A,,Clear,0,2013-08-06 06:50:00
9:20 AM,84.2,68.0,58,30.01,-9999.0,Variable,2.3,-,N/A,,Clear,0,2013-08-06 07:20:00
9:50 AM,86.0,69.8,58,30.01,-9999.0,NNE,4.6,-,N/A,,Clear,20,2013-08-06 07:50:00
10:20 AM,87.8,69.8,55,30.01,-9999.0,Variable,2.3,-,N/A,,Clear,0,2013-08-06 08:20:00
10:50 AM,89.6,69.8,52,30.01,-9999.0,Variable,2.3,-,N/A,,Clear,0,2013-08-06 08:50:00
11:20 AM,89.6,71.6,55,30.01,-9999.0,SSW,3.5,-,N/A,,Clear,210,2013-08-06 09:20:00
11:50 AM,89.6,71.6,55,30.01,-9999.0,South,6.9,-,N/A,,Clear,180,2013-08-06 09:50:00
12:20 PM,89.6,73.4,59,30.01,-9999.0,South,8.1,-,N/A,,Clear,190,2013-08-06 10:20:00
12:50 PM,89.6,75.2,62,30.01,-9999.0,South,9.2,-,N/A,,Clear,170,2013-08-06 10:50:00
1:20 PM,89.6,75.2,62,30.01,-9999.0,South,9.2,-,N/A,,Clear,170,2013-08-06 11:20:00
1:50 PM,89.6,75.2,62,29.98,-9999.0,SSW,9.2,-,N/A,,Clear,200,2013-08-06 11:50:00
2:20 PM,91.4,73.4,55,29.98,-9999.0,South,9.2,-,N/A,,Clear,180,2013-08-06 12:20:00
2:50 PM,89.6,75.2,62,29.98,-9999.0,South,9.2,-,N/A,,Clear,190,2013-08-06 12:50:00
3:20 PM,89.6,75.2,62,29.98,-9999.0,South,9.2,-,N/A,,Clear,170,2013-08-06 13:20:00
3:50 PM,87.8,75.2,66,29.98,-9999.0,South,9.2,-,N/A,,Clear,180,2013-08-06 13:50:00
4:20 PM,87.8,75.2,66,29.98,-9999.0,South,9.2,-,N/A,,Clear,180,2013-08-06 14:20:00
4:50 PM,89.6,73.4,59,29.98,-9999.0,South,6.9,-,N/A,,Clear,180,2013-08-06 14:50:00
5:20 PM,89.6,73.4,59,29.95,-9999.0,SSE,6.9,-,N/A,,Clear,160,2013-08-06 15:20:00
5:50 PM,89.6,69.8,52,29.95,-9999.0,South,6.9,-,N/A,,Clear,190,2013-08-06 15:50:00
6:20 PM,89.6,69.8,52,29.95,-9999.0,South,6.9,-,N/A,,Clear,170,2013-08-06 16:20:00
6:50 PM,87.8,71.6,58,29.95,-9999.0,South,4.6,-,N/A,,Clear,180,2013-08-06 16:50:00
7:20 PM,87.8,71.6,58,29.95,-9999.0,South,4.6,-,N/A,,Clear,180,2013-08-06 17:20:00
7:50 PM,86.0,69.8,58,29.95,-9999.0,South,5.8,-,N/A,,Clear,180,2013-08-06 17:50:00
8:20 PM,84.2,71.6,66,29.95,-9999.0,South,5.8,-,N/A,,Clear,180,2013-08-06 18:20:00
8:50 PM,82.4,73.4,74,29.95,-9999.0,Variable,2.3,-,N/A,,Clear,0,2013-08-06 18:50:00
9:20 PM,82.4,73.4,74,29.95,-9999.0,South,2.3,-,N/A,,Clear,190,2013-08-06 19:20:00
9:50 PM,84.2,73.4,70,29.95,-9999.0,WNW,5.8,-,N/A,,Clear,300,2013-08-06 19:50:00
10:20 PM,82.4,71.6,70,29.95,-9999.0,East,3.5,-,N/A,,Clear,100,2013-08-06 20:20:00
10:50 PM,82.4,69.8,66,29.95,-9999.0,NNE,3.5,-,N/A,,Clear,20,2013-08-06 20:50:00
11:20 PM,80.6,71.6,74,29.95,-9999.0,ENE,3.5,-,N/A,,Clear,60,2013-08-06 21:20:00
11:50 PM,80.6,71.6,74,29.95,-9999.0,Variable,2.3,-,N/A,,Clear,0,2013-08-06 21:50:00